TimeEST,TemperatureF,Dew PointF,Humidity,Sea Level PressureIn,VisibilityMPH,Wind Direction,Wind SpeedMPH,Gust SpeedMPH,PrecipitationIn,Events,Conditions,WindDirDegrees,DateUTC
12:55 AM,32.0,27.5,83,29.94,10.0,ENE,16.1,-,N/A,,Partly Cloudy,60,2013-02-26 05:55:00
1:55 AM,32.0,26.6,80,29.91,10.0,ENE,18.4,24.2,N/A,,Partly Cloudy,60,2013-02-26 06:55:00
2:55 AM,31.8,26.1,79,29.86,10.0,ENE,19.6,-,N/A,,Overcast,60,2013-02-26 07:55:00
3:55 AM,32.2,25.9,78,29.81,10.0,ENE,21.9,28.8,N/A,,Clear,60,2013-02-26 08:55:00
4:55 AM,32.4,25.7,76,29.77,10.0,ENE,23.0,32.2,N/A,,Mostly Cloudy,60,2013-02-26 09:55:00
5:55 AM,32.7,25.7,75,29.69,10.0,NE,24.2,31.1,N/A,,Overcast,50,2013-02-26 10:55:00
6:55 AM,33.4,25.5,73,29.76,10.0,East,17.3,-,N/A,,Overcast,80,2013-02-26 11:55:00
7:10 AM,33.8,26.6,75,29.76,10.0,East,17.3,-,N/A,Rain,Light Rain,80,2013-02-26 12:10:00
7:26 AM,33.8,26.6,75,29.72,6.0,ENE,25.3,31.1,N/A,Rain,Light Freezing Rain,60,2013-02-26 12:26:00
7:32 AM,32.0,28.4,87,29.71,7.0,NE,23.0,31.1,N/A,Rain,Light Freezing Rain,50,2013-02-26 12:32:00
8:21 AM,32.0,30.2,93,29.69,7.0,NE,25.3,29.9,N/A,Rain,Light Freezing Rain,50,2013-02-26 13:21:00
8:46 AM,32.0,30.2,93,29.67,6.0,ENE,24.2,31.1,N/A,Rain,Light Freezing Rain,60,2013-02-26 13:46:00
8:55 AM,32.0,30.0,92,29.65,6.0,ENE,26.5,31.1,0.09,Rain,Light Freezing Rain,60,2013-02-26 13:55:00
9:07 AM,32.0,30.2,93,29.63,6.0,NE,26.5,31.1,N/A,Rain,Light Freezing Rain,50,2013-02-26 14:07:00
9:55 AM,32.2,30.6,94,29.58,6.0,ENE,16.1,-,0.07,Rain,Light Freezing Rain,60,2013-02-26 14:55:00
10:32 AM,32.0,32.0,100,29.51,6.0,ENE,11.5,-,N/A,Rain,Light Freezing Rain,70,2013-02-26 15:32:00
10:44 AM,32.0,30.2,93,29.55,7.0,ENE,10.4,-,N/A,,Light Freezing Drizzle,70,2013-02-26 15:44:00
10:55 AM,32.4,31.1,95,29.56,6.0,East,9.2,-,0.05,Rain,Light Freezing Rain,80,2013-02-26 15:55:00
11:55 AM,32.5,32.0,98,29.56,3.0,East,10.4,-,0.23,Rain,Light Freezing Rain,80,2013-02-26 16:55:00
12:10 PM,32.0,32.0,100,29.55,3.0,ENE,10.4,-,N/A,Rain,Light Rain,70,2013-02-26 17:10:00
12:55 PM,32.9,32.4,98,29.50,6.0,ENE,19.6,-,0.10,Rain,Light Rain,70,2013-02-26 17:55:00
12:59 PM,33.8,32.0,93,29.50,6.0,ENE,18.4,23.0,N/A,,Overcast,70,2013-02-26 17:59:00
1:12 PM,33.8,32.0,93,29.49,3.0,ENE,18.4,26.5,N/A,,Overcast,60,2013-02-26 18:12:00
1:36 PM,33.8,32.0,93,29.48,4.0,ENE,17.3,25.3,N/A,,Light Drizzle,70,2013-02-26 18:36:00
1:55 PM,33.1,33.1,100,29.46,3.0,ENE,19.6,27.6,0.03,Rain,Light Rain,60,2013-02-26 18:55:00
2:03 PM,33.8,33.8,100,29.46,4.0,ENE,17.3,28.8,N/A,Rain,Light Rain,70,2013-02-26 19:03:00
2:38 PM,33.8,33.8,100,29.45,5.0,ENE,16.1,-,N/A,,Overcast,70,2013-02-26 19:38:00
2:52 PM,33.8,33.8,100,29.44,4.0,ENE,17.3,25.3,N/A,,Overcast,70,2013-02-26 19:52:00
3:14 PM,33.8,33.8,100,29.44,3.0,ENE,17.3,-,N/A,Rain,Light Rain,70,2013-02-26 20:14:00
3:19 PM,33.8,33.8,100,29.44,2.5,ENE,15.0,-,N/A,Rain,Light Rain,70,2013-02-26 20:19:00
3:29 PM,33.8,33.8,100,29.44,3.0,ENE,16.1,-,N/A,Rain,Light Rain,60,2013-02-26 20:29:00
3:40 PM,33.8,33.8,100,29.44,5.0,ENE,15.0,-,N/A,Rain,Light Rain,60,2013-02-26 20:40:00
3:55 PM,34.0,34.0,100,29.44,10.0,ENE,15.0,-,0.03,Rain,Light Rain,70,2013-02-26 20:55:00
3:57 PM,33.8,33.8,100,29.44,10.0,ENE,11.5,-,N/A,,Overcast,70,2013-02-26 20:57:00
4:07 PM,33.8,33.8,100,29.44,6.0,ENE,15.0,-,N/A,Rain,Light Rain,60,2013-02-26 21:07:00
4:09 PM,33.8,33.8,100,29.44,4.0,ENE,15.0,-,N/A,Rain,Light Rain,60,2013-02-26 21:09:00
5:04 PM,33.8,33.8,100,29.44,5.0,ENE,13.8,-,N/A,Rain,Light Rain,60,2013-02-26 22:04:00
5:14 PM,33.8,33.8,100,29.44,8.0,ENE,12.7,-,N/A,Rain,Light Rain,60,2013-02-26 22:14:00
6:27 PM,33.8,33.8,100,29.45,6.0,NE,4.6,-,N/A,Rain,Light Rain,50,2013-02-26 23:27:00
6:41 PM,33.8,33.8,100,29.45,7.0,NE,3.5,-,N/A,Rain,Light Rain,50,2013-02-26 23:41:00
6:48 PM,33.8,33.8,100,29.46,8.0,NE,4.6,-,N/A,Rain,Light Rain,50,2013-02-26 23:48:00
6:55 PM,34.2,34.2,100,29.45,10.0,ENE,8.1,-,0.06,Rain,Light Rain,60,2013-02-26 23:55:00
7:15 PM,33.8,33.8,100,29.46,10.0,ENE,8.1,-,N/A,Rain,Light Rain,60,2013-02-27 00:15:00
7:28 PM,33.8,33.8,100,29.46,10.0,NNE,3.5,-,N/A,Rain,Light Rain,20,2013-02-27 00:28:00
7:46 PM,33.8,33.8,100,29.46,10.0,ENE,9.2,-,N/A,Rain,Light Rain,70,2013-02-27 00:46:00
7:55 PM,34.0,34.0,100,29.46,10.0,ENE,5.8,-,0.01,Rain,Light Rain,70,2013-02-27 00:55:00
7:59 PM,33.8,33.8,100,29.46,10.0,ENE,5.8,-,N/A,,Overcast,70,2013-02-27 00:59:00
8:18 PM,33.8,33.8,100,29.46,8.0,East,4.6,-,N/A,,Overcast,80,2013-02-27 01:18:00
8:19 PM,33.8,33.8,100,29.46,8.0,East,4.6,-,N/A,Rain,Light Rain,80,2013-02-27 01:19:00
8:31 PM,33.8,33.8,100,29.46,7.0,ENE,4.6,-,N/A,Rain,Light Rain,70,2013-02-27 01:31:00
8:55 PM,34.2,34.2,100,29.46,7.0,East,3.5,-,0.04,Rain,Light Rain,90,2013-02-27 01:55:00
8:56 PM,33.8,33.8,100,29.46,7.0,East,3.5,-,N/A,Rain,Light Rain,100,2013-02-27 01:56:00
9:12 PM,33.8,33.8,100,29.46,7.0,Calm,Calm,-,N/A,Rain,Light Rain,0,2013-02-27 02:12:00
9:15 PM,33.8,33.8,100,29.46,6.0,Calm,Calm,-,N/A,,Overcast,0,2013-02-27 02:15:00
9:19 PM,33.8,33.8,100,29.46,4.0,Calm,Calm,-,N/A,,Overcast,0,2013-02-27 02:19:00
9:20 PM,33.8,33.8,100,29.46,4.0,Calm,Calm,-,N/A,Rain,Light Rain,0,2013-02-27 02:20:00
9:22 PM,33.8,33.8,100,29.46,4.0,Calm,Calm,-,N/A,Rain,Light Rain,0,2013-02-27 02:22:00
9:27 PM,33.8,33.8,100,29.46,3.0,Calm,Calm,-,N/A,Rain,Light Rain,0,2013-02-27 02:27:00
9:37 PM,33.8,33.8,100,29.47,3.0,Calm,Calm,-,N/A,Rain,Light Rain,0,2013-02-27 02:37:00
9:39 PM,33.8,33.8,100,29.46,2.5,Calm,Calm,-,N/A,,Light Drizzle,0,2013-02-27 02:39:00
9:42 PM,33.8,33.8,100,29.47,2.5,Calm,Calm,-,N/A,,Light Drizzle,0,2013-02-27 02:42:00
9:50 PM,33.8,33.8,100,29.47,2.5,Calm,Calm,-,N/A,Rain,Light Rain,0,2013-02-27 02:50:00
9:54 PM,33.8,33.8,100,29.47,3.0,Calm,Calm,-,N/A,Rain,Light Rain,0,2013-02-27 02:54:00
10:02 PM,33.8,33.8,100,29.47,3.0,Calm,Calm,-,N/A,Rain,Light Rain,0,2013-02-27 03:02:00
10:03 PM,33.8,33.8,100,29.47,2.5,Calm,Calm,-,N/A,Rain,Light Rain,0,2013-02-27 03:03:00
10:05 PM,33.8,33.8,100,29.46,2.5,Calm,Calm,-,N/A,Rain,Light Rain,0,2013-02-27 03:05:00
10:10 PM,33.8,33.8,100,29.47,2.0,Calm,Calm,-,N/A,Rain,Light Rain,0,2013-02-27 03:10:00
10:15 PM,33.8,33.8,100,29.46,2.0,Calm,Calm,-,N/A,Rain,Light Rain,0,2013-02-27 03:15:00
10:21 PM,33.8,33.8,100,29.46,1.8,Calm,Calm,-,N/A,Rain,Light Rain,0,2013-02-27 03:21:00
10:26 PM,33.8,33.8,100,29.47,1.8,Calm,Calm,-,N/A,Rain,Light Rain,0,2013-02-27 03:26:00
10:27 PM,33.8,33.8,100,29.46,2.0,Calm,Calm,-,N/A,Rain,Light Rain,0,2013-02-27 03:27:00
10:32 PM,33.8,33.8,100,29.47,2.5,Calm,Calm,-,N/A,Rain,Light Rain,0,2013-02-27 03:32:00
10:34 PM,33.8,33.8,100,29.46,2.0,Calm,Calm,-,N/A,Rain,Light Rain,0,2013-02-27 03:34:00
10:36 PM,33.8,33.8,100,29.46,1.8,WNW,3.5,-,N/A,Rain,Light Rain,290,2013-02-27 03:36:00
10:38 PM,33.8,33.8,100,29.46,1.5,WNW,3.5,-,N/A,Rain,Light Rain,290,2013-02-27 03:38:00
10:40 PM,33.8,33.8,100,29.47,1.2,WNW,3.5,-,N/A,Rain,Light Rain,290,2013-02-27 03:40:00
10:48 PM,33.8,33.8,100,29.46,1.0,Calm,Calm,-,N/A,Rain,Light Rain,0,2013-02-27 03:48:00
10:51 PM,33.8,33.8,100,29.46,1.0,WNW,3.5,-,N/A,Rain,Light Rain,290,2013-02-27 03:51:00
10:55 PM,33.6,33.6,100,29.46,1.0,Calm,Calm,-,0.03,Rain,Light Rain,0,2013-02-27 03:55:00
10:58 PM,33.8,33.8,100,29.46,1.0,WNW,3.5,-,N/A,Rain,Light Rain,290,2013-02-27 03:58:00
11:00 PM,33.8,33.8,100,29.46,1.2,Calm,Calm,-,N/A,Rain,Light Rain,0,2013-02-27 04:00:00
11:13 PM,33.8,33.8,100,29.46,1.2,Calm,Calm,-,N/A,Rain,Light Rain,0,2013-02-27 04:13:00
11:19 PM,33.8,33.8,100,29.46,1.5,WNW,3.5,-,N/A,Rain,Light Rain,300,2013-02-27 04:19:00
11:24 PM,33.8,33.8,100,29.46,1.8,West,3.5,-,N/A,Rain,Light Rain,280,2013-02-27 04:24:00
11:29 PM,33.8,33.8,100,29.46,2.0,Calm,Calm,-,N/A,Rain,Light Rain,0,2013-02-27 04:29:00
11:35 PM,33.8,33.8,100,29.46,2.0,Calm,Calm,-,N/A,Rain,Light Rain,0,2013-02-27 04:35:00
11:37 PM,33.8,33.8,100,29.46,2.0,Calm,Calm,-,N/A,Rain,Light Rain,0,2013-02-27 04:37:00
11:51 PM,33.8,33.8,100,29.46,1.8,WSW,3.5,-,N/A,Rain,Light Rain,240,2013-02-27 04:51:00
11:53 PM,33.8,33.8,100,29.47,1.8,WSW,3.5,-,N/A,Rain,Light Rain,240,2013-02-27 04:53:00
11:55 PM,33.4,33.4,100,29.47,1.8,WSW,3.5,-,0.06,Rain,Light Rain,240,2013-02-27 04:55:00